Location: Burbank
(38.7788°N, 114.0429°W)
Time: 21:10:40
(UTC+00:00)

S-56A Canister/Altair - Pass Details

Date: 15 May 2026
Orbit: 632 x 2484 km, 38.9° (Epoch: 8 June)

Event Time Altitude Azimuth Distance (km) Brightness Sun altitude
Rises 06:22:02 0° 272° (W) 2,914 10.8 -30.0°
Reaches altitude 10° 06:24:12 10° 273° (W) 2,027 9.9 -30.2°
Enters shadow 06:25:01 16° 273° (W) 1,705 9.5 -30.2°
Maximum altitude 06:28:42 88° 2° (N) 712 - -30.4°
Drops below altitude 10° 06:34:21 10° 93° (E) 2,528 - -30.7°
Sets 06:37:20 0° 94° (E) 3,708 - -30.9°
